Here is the Quick Look data you requested

The Data originates at the National Weather Service, and is made available here by the UAlbany Department of Atmospheric and Environmental Sciences

Surface Observations

PAKU 271545Z 07011KT 1/2SM R06/1400FT FG VV003 03/03 A2986=